Punta Gorda, FL

10:08 PM EDT on August 30, 2016 (GMT -0400)
Charlotte County

Weather History for KPGD - February, 2013

Change the Weather History Date:

Sunday, February 17, 2013

  Actual Average Record
Temperature  
Mean Temperature 47 °F -  
Max Temperature 57 °F 74 °F 84 °F (2008)
Min Temperature 37 °F 52 °F 34 °F (2007)
Degree Days  
Heating Degree Days 18    
Moisture  
Dew Point 25 °F    
Average Humidity 41    
Maximum Humidity 67    
Minimum Humidity 21    
Precipitation  
Precipitation 0.00 in - - ()
Sea Level Pressure  
Sea Level Pressure 30.29 in    
Wind  
Wind Speed 11 mph (NNE)    
Max Wind Speed 17 mph    
Max Gust Speed 26 mph    
Visibility 10 miles    
Events      
Averages and records for this station are not official NWS values.
T = Trace of Precipitation, MM = Missing Value Source: NWS Daily Summary

Daily Weather History Graph

Daily Weather History Graph

Search for Another Location

Airport or City:

Trip Planner

Search our weather history database for the weather conditions in past years. The results will help you decide how hot, cold, wet, or windy it might be!

Date:

Astronomy

Feb. 17, 2013 Rise Set
Actual Time 7:02 AM EST 6:21 PM EST
Civil Twilight 6:38 AM EST 6:45 PM EST
Nautical Twilight 6:11 AM EST 7:12 PM EST
Astronomical Twilight 5:44 AM EST 7:39 PM EST
Moon 11:37 AM EST (2/17) 12:34 AM EST (2/17)
Length of Visible Light 12h 06m
Length of Day
11h 19m
Waxing Crescent, 49% of the Moon is Illuminated
Feb 17
Waxing Crescent
Feb 17
First Quarter
Feb 25
Full
Mar 4
Last Quarter
Mar 11
New

Hourly Weather History & Observations

Time (EST) Temp. Windchill Dew Point Humidity Pressure Visibility Wind Dir Wind Speed Gust Speed Precip Events Conditions
12:53 AM 55.0 °F - 39.0 °F 55% 30.16 in 10.0 mi NNW 13.8 mph - N/A   Mostly Cloudy
1:53 AM 53.1 °F - 36.0 °F 52% 30.17 in 10.0 mi North 17.3 mph 26.5 mph N/A   Partly Cloudy
2:53 AM 48.9 °F - 30.0 °F 48% 30.19 in 10.0 mi North 15.0 mph - N/A   Clear
3:53 AM 46.0 °F 39.9 °F 25.0 °F 44% 30.21 in 10.0 mi NNE 13.8 mph - N/A   Clear
4:53 AM 44.1 °F 37.7 °F 21.0 °F 40% 30.22 in 10.0 mi NNE 12.7 mph - N/A   Clear
5:53 AM 42.1 °F 36.1 °F 21.0 °F 43% 30.25 in 10.0 mi NNE 10.4 mph - N/A   Clear
6:53 AM 37.9 °F 33.5 °F 24.1 °F 57% 30.27 in 10.0 mi NNE 5.8 mph - N/A   Clear
7:53 AM 43.0 °F 37.7 °F 23.0 °F 45% 30.30 in 10.0 mi NNE 9.2 mph - N/A   Clear
8:53 AM 46.0 °F 40.2 °F 21.0 °F 37% 30.33 in 10.0 mi NNE 12.7 mph - N/A   Clear
9:53 AM 50.0 °F - 19.9 °F 31% 30.35 in 10.0 mi NNE 16.1 mph 24.2 mph N/A   Clear
10:53 AM 52.0 °F - 21.9 °F 31% 30.35 in 10.0 mi NNE 13.8 mph 20.7 mph N/A   Clear
11:53 AM 53.1 °F - 21.9 °F 30% 30.35 in 10.0 mi North 6.9 mph 20.7 mph N/A   Clear
1:53 PM 57.0 °F - 21.0 °F 25% 30.30 in 10.0 mi NNE 12.7 mph 19.6 mph N/A   Clear
2:53 PM 57.0 °F - 17.1 °F 21% 30.29 in 10.0 mi Variable 4.6 mph 18.4 mph N/A   Clear
3:53 PM 57.9 °F - 18.0 °F 21% 30.29 in 10.0 mi NNE 10.4 mph 16.1 mph N/A   Clear
4:53 PM 57.9 °F - 18.0 °F 21% 30.29 in 10.0 mi NE 6.9 mph - N/A   Clear
5:53 PM 55.0 °F - 18.0 °F 23% 30.30 in 10.0 mi NNE 5.8 mph - N/A   Clear
6:53 PM 48.0 °F - 26.1 °F 42% 30.31 in 10.0 mi NE 4.6 mph - N/A   Clear
7:53 PM 43.0 °F 41.3 °F 32.0 °F 65% 30.32 in 10.0 mi ENE 3.5 mph - N/A   Clear
8:53 PM 44.1 °F 41.5 °F 28.9 °F 55% 30.34 in 10.0 mi North 4.6 mph - N/A   Clear
9:53 PM 41.0 °F 38.0 °F 30.9 °F 67% 30.36 in 10.0 mi NNE 4.6 mph - N/A   Clear
10:53 PM 42.1 °F 39.2 °F 28.9 °F 60% 30.37 in 10.0 mi North 4.6 mph - N/A   Clear